SCP
-0 -0 -0 -0 -0 -0 -0 -0 -0 0 0 0 0 0 0 0 0 0 0 0 0 0 0 0 0 0 0 0 0 0 0 0 0 0 0 0 0 0 0 0 0 0 0
-0 -0 -0 -0 -0 -0 -0 -0 0 0 0 0 0 0 0 0 0 0 0 0 0 0 0 0 0 0 0 0 0 0 0 0 0 0 0 0 0 0 0 0 0 0 0
-0 -0 -0 -0 -0 -0 -0 0 0 0 0 0 0 0 0 0 0 0 0 0 0 0 0 0 0 0 0 0 0 0 0 0 0 0 0 0 0 0 0 0 0 0 0
-0 0 0 -0 -0 -0 -0 -0 0 0 0 0 0 0 0 0 0 0 0 0 0 0 0 0 0 0 0 0 0 0 0 0 0 0 0 0 0 0 0 0 0 0 0
0 0 0 -0 -0 -0 -0 0 0 0 0 0 0 0 0 0 0 0 0 0 0 0 0 0 0 0 0 0 0 0 0 0 0 0 0 0 0 0 0 0 0 0 0
0 0 0 -0 -0 -0 -0 0 0 0 0 0 0 0 0 0 0 0 0 0 0 0 0 0 0 0 0 0 0 0 0 0 0 0 0 0 0 0 0 0 0 0 0
0 0 0 -0 -0 -0 0 0 0 0 0 0 0 0 0 0 0 0 0 0 0 0 0 0 0 0 0 0 0 0 0 0 0 0 0 0 0 0 0 1 0 0 0
0 0 0 -0 -0 0 0 0 0 0 0 0 0 0 0 0 0 0 0 0 0 0 0 0 0 0 0 0 0 0 0 0 0 0 0 0 0 0 0 0 1 0 0
0 0 0 0 0 0 0 0 0 0 0 0 0 0 0 0 0 0 0 0 0 0 0 0 0 0 0 0 0 0 0 0 0 0 0 0 0 0 0 0 1 0 0
0 0 0 -0 0 0 0 0 0 0 0 0 0 0 0 0 0 0 0 0 0 0 0 0 0 0 0 0 0 0 0 0 0 0 0 0 0 0 0 0 1 0 0
0 0 -0 -0 -0 0 0 0 0 0 0 0 0 0 0 0 0 0 0 0 0 0 0 0 0 0 0 0 0 0 0 0 0 0 0 0 0 0 0 0 1 1 0
0 0 -0 -0 -0 -0 0 0 0 0 0 0 0 0 0 0 0 0 0 0 0 0 0 0 0 0 0 0 0 0 0 0 0 0 0 0 0 0 0 0 0 0 0
0 0 0 -0 -0 -0 0 0 0 0 0 0 0 0 0 0 0 0 0 0 0 0 0 0 0 0 0 0 0 0 0 0 0 0 0 0 0 0 0 0 0 0 0
0 0 0 -0 -0 -0 0 0 0 0 0 0 0 0 0 0 0 0 0 0 0 0 0 0 0 0 0 0 0 0 0 0 0 -0 0 0 0 0 0 0 0 0 0
0 0 0 0 0 0 0 0 0 0 0 0 0 0 0 0 0 0 0 0 0 0 0 0 0 0 0 0 0 0 0 0 0 0 0 0 0 0 0 0 0 0 1
0 0 0 0 0 0 0 0 0 0 0 0 0 0 0 0 0 0 0 0 0 0 0 0 0 0 0 0 0 0 0 0 0 0 0 0 0 0 0 0 0 0 0
0 0 0 0 0 0 0 0 0 0 0 0 0 0 0 0 0 0 0 0 0 0 0 0 0 0 0 0 0 0 0 0 0 0 0 0 0 0 0 0 1 0 0
0 0 0 0 0 0 0 0 0 0 0 0 0 0 0 0 0 0 0 0 0 0 0 0 0 0 0 0 0 0 0 0 0 0 0 0 0 0 0 0 0 0 -0
0 0 0 0 0 0 0 0 0 0 0 0 0 0 0 0 0 0 0 0 0 0 0 0 0 0 0 0 0 0 0 0 0 0 0 0 0 0 0 0 0 0 -0
0 0 0 0 0 0 0 0 0 0 0 0 0 0 0 0 0 0 0 0 0 0 0 0 0 0 0 0 0 0 0 0 0 0 0 0 0 0 0 0 0 0 0
0 0 0 0 0 0 0 0 0 0 0 0 0 0 0 0 0 0 0 0 0 0 0 0 0 0 0 -0 0 0 0 0 0 0 0 0 0 0 0 0 0 0 0
0 0 0 0 0 0 0 0 0 0 0 0 0 0 0 0 0 0 0 0 0 0 -0 0 0 0 0 -0 0 0 0 0 0 0 0 0 0 0 0 0 0 0 0
0 0 0 0 0 0 0 0 0 0 0 0 0 0 0 0 0 0 0 0 0 0 0 0 0 0 0 0 0 0 0 0 0 0 0 0 0 0 0 0 -0 0 0
0 0 0 0 0 0 0 0 0 0 0 0 0 0 0 0 0 0 0 0 0 0 0 0 0 0 0 0 0 0 0 0 0 0 0 0 0 -0 -0 -0 0 0 0
0 0 0 0 0 0 0 0 0 0 0 0 0 0 0 0 0 0 0 0 0 0 0 0 0 0 0 0 0 0 0 0 -0 0 0 0 0 0 0 -0 -0 -0 -0
0 0 0 0 0 0 0 0 0 0 0 0 0 0 0 0 0 0 0 0 0 0 0 0 0 0 0 0 0 0 0 0 -0 0 0 0 0 0 0 0 0 0 0
Wind_Speed_500mb
27 22 27 18 19 17 19 14 10 7 8 12 15 13 10 7 6 8 10 12 15 18 21 23 26 29 30 31 30 31 28 21 23 25 23 23 24 20 17 13 15 13 21
28 27 23 17 14 14 13 14 8 5 9 13 12 10 8 8 7 7 7 9 12 15 17 19 21 24 25 27 29 32 35 37 30 26 28 27 24 22 21 18 19 17 23
24 28 27 17 17 15 15 11 5 6 10 10 8 8 8 9 9 10 10 11 12 15 17 20 21 23 23 24 25 28 31 34 36 33 31 31 30 26 25 24 24 22 23
27 31 26 22 21 18 16 9 4 6 8 6 7 7 8 9 10 11 12 13 14 16 18 21 23 25 25 24 25 27 31 34 38 43 39 36 35 33 28 30 32 29 26
30 31 28 25 21 19 14 8 5 5 4 6 7 8 10 12 14 14 14 14 15 16 18 20 22 24 25 26 28 30 34 36 37 38 44 44 41 38 35 32 36 35 31
29 27 26 24 22 19 13 8 4 3 4 6 9 12 14 15 15 15 16 16 17 18 19 22 23 25 27 28 30 30 32 31 32 36 40 48 48 43 41 33 39 38 33
28 26 25 22 20 19 14 7 2 2 5 8 12 14 16 16 17 17 17 17 19 21 21 25 27 28 27 25 24 25 22 23 24 25 29 36 46 46 45 36 37 40 39
16 21 22 22 22 19 13 6 2 1 4 9 12 14 15 17 17 17 17 19 21 21 20 22 19 23 25 21 22 21 24 27 23 23 25 28 36 46 45 43 36 40 45
20 19 22 22 24 19 13 7 4 1 3 8 11 13 15 16 16 16 18 19 20 25 22 24 25 26 27 26 26 25 23 18 19 19 24 29 41 50 51 40 35 39 45
22 20 21 22 23 20 15 9 6 3 3 6 10 12 15 15 15 15 17 20 23 20 22 24 23 26 29 27 24 21 22 21 22 20 20 20 26 39 47 44 41 38 43
31 24 19 22 24 21 16 12 9 4 2 6 9 12 14 14 14 17 19 22 20 23 26 31 32 29 30 28 28 24 21 19 17 17 16 18 17 29 41 38 43 36 35
37 27 22 25 24 22 18 14 10 6 2 4 8 11 12 12 15 18 21 21 18 19 25 27 28 30 31 30 28 22 18 15 14 12 10 10 16 24 28 37 36 35 33
31 28 25 26 25 22 18 16 11 7 3 3 7 10 11 12 15 17 19 17 17 17 24 27 28 33 34 28 24 22 17 15 15 14 7 7 14 23 31 39 41 32 31
39 29 27 28 26 25 22 17 12 8 4 3 6 9 9 10 13 15 17 14 15 18 25 26 33 35 29 27 27 26 24 16 11 12 7 5 10 22 28 38 44 27 25
43 36 33 32 29 27 23 18 13 9 6 3 5 7 8 9 11 15 15 13 14 18 23 27 35 36 40 42 42 45 35 27 14 17 5 7 6 11 18 31 41 28 21
48 44 39 37 33 30 26 20 15 11 6 5 4 6 6 7 9 14 13 12 14 17 22 30 35 37 33 46 50 54 43 38 31 23 11 8 9 13 15 28 31 26 12
51 47 45 41 36 32 27 22 17 13 9 6 5 6 5 6 8 13 11 10 10 16 19 25 27 31 37 45 48 50 45 41 36 31 24 12 14 19 30 43 47 27 41
55 53 48 46 41 36 32 26 22 16 12 10 6 7 4 4 6 12 11 11 10 13 16 19 23 28 42 48 49 43 45 44 36 36 33 24 26 36 49 52 49 44 30
55 55 54 51 46 41 37 31 26 21 16 14 10 8 6 2 4 10 10 11 9 12 18 20 22 24 36 45 45 40 46 39 39 37 38 32 31 47 47 34 41 43 32
58 54 54 52 50 47 41 37 33 27 22 19 14 11 9 5 1 6 8 10 8 16 17 18 19 21 28 39 40 32 43 40 35 41 44 40 30 46 48 40 53 44 33
62 59 57 58 58 55 53 47 40 32 26 22 18 14 12 8 4 4 6 8 8 15 17 19 20 16 18 35 38 39 39 43 38 33 49 49 40 37 36 39 48 41 27
66 66 64 61 61 58 52 44 38 31 28 25 22 19 17 12 7 2 3 6 9 14 17 18 20 19 18 22 28 32 34 37 33 31 35 50 47 43 45 45 47 54 44
73 73 70 66 64 58 53 50 44 40 36 35 29 23 20 16 11 4 2 5 8 13 16 17 19 18 15 13 13 10 12 16 47 42 34 44 58 70 60 53 57 60 87
70 67 70 68 65 61 56 56 50 44 37 30 24 24 23 19 14 8 5 5 7 13 15 17 19 18 17 16 19 22 19 34 43 33 48 42 39 55 73 77 76 72 67
65 65 70 70 67 61 60 57 52 45 35 28 31 30 28 24 20 13 7 7 8 12 15 16 18 18 18 21 22 27 28 30 39 69 49 56 46 49 60 64 67 66 69
67 65 67 72 69 63 62 59 54 45 40 37 36 34 32 28 24 17 10 8 12 11 15 16 19 17 16 17 21 27 39 46 57 59 76 69 72 71 66 60 60 54 52
Wind_Direction_500mb
162 188 185 205 217 233 231 232 235 257 301 320 325 328 329 326 312 288 277 274 272 271 272 272 270 268 265 264 260 258 259 260 247 238 238 238 238 244 243 248 222 209 183
162 184 181 206 217 226 244 211 229 285 323 331 335 342 345 347 337 317 304 292 287 285 284 280 278 275 272 268 264 260 259 257 256 243 240 236 237 238 234 230 220 218 189
171 170 178 189 208 221 226 205 231 306 329 333 347 355 359 356 346 338 330 321 309 298 296 292 290 286 281 274 268 262 259 254 243 234 233 232 227 228 227 218 213 211 190
173 171 173 189 210 212 198 201 247 310 326 345 9 11 8 357 351 344 337 328 313 305 299 295 292 291 286 278 268 258 251 247 242 234 229 227 223 220 221 212 209 207 192
176 177 180 188 200 185 189 199 247 306 337 11 18 14 4 360 353 345 337 327 315 307 302 298 298 292 287 279 271 264 256 251 247 242 232 226 223 216 216 212 211 208 197
181 183 196 186 182 176 185 202 254 325 4 16 13 7 2 359 350 345 342 334 324 322 318 310 302 300 302 298 293 295 287 276 262 250 238 226 221 216 214 214 212 212 202
181 187 210 220 181 174 183 198 247 354 7 12 7 5 0 356 349 346 341 334 331 329 328 334 327 323 316 309 307 298 302 294 278 264 254 241 226 218 215 213 211 213 205
201 204 221 218 174 178 182 190 203 350 4 7 4 2 355 351 343 340 339 334 337 346 348 337 343 342 344 327 312 303 306 304 298 271 251 242 237 226 220 217 210 212 207
208 228 225 198 175 180 183 188 198 258 357 8 359 354 351 348 343 342 339 337 341 349 1 3 7 0 354 344 330 323 315 297 282 272 250 233 214 209 217 223 213 209 209
219 229 226 193 178 183 188 194 201 231 341 0 358 350 350 349 344 342 341 347 356 356 14 9 1 2 3 354 339 326 316 305 293 279 259 245 235 217 199 213 218 213 210
215 220 217 196 183 188 194 205 209 216 288 351 354 349 354 350 344 347 353 4 7 17 14 16 17 9 359 353 349 343 329 314 309 294 273 247 230 207 199 203 211 214 218
212 212 206 198 193 194 201 206 210 210 258 345 351 351 355 347 348 355 6 4 18 18 14 13 8 0 -0 360 359 353 348 342 324 312 281 252 225 198 199 200 200 207 216
212 211 204 199 197 198 202 203 207 213 236 322 357 352 355 349 356 0 3 1 23 22 25 22 16 8 8 10 10 7 3 348 331 328 298 295 225 211 206 204 206 189 204
215 216 210 203 201 197 200 204 206 215 228 310 354 351 350 349 3 4 4 23 28 39 35 27 16 13 20 26 20 14 8 351 342 350 326 293 214 218 209 206 204 189 189
223 221 217 212 206 204 207 209 207 207 222 280 342 344 340 352 8 5 9 34 40 49 42 31 22 23 26 35 31 31 21 14 12 359 13 166 189 207 209 200 197 195 185
227 226 223 217 211 209 212 211 209 206 219 261 313 323 331 350 9 5 17 44 48 60 50 38 30 37 41 42 44 39 31 33 30 22 33 168 149 161 170 163 162 181 177
232 228 225 220 217 214 215 215 213 215 208 240 286 296 314 339 13 2 20 42 58 72 64 49 44 53 57 50 47 49 41 37 34 41 53 91 140 137 137 130 151 164 117
231 230 227 221 219 218 218 216 216 215 209 225 247 265 276 321 21 5 20 42 62 80 77 60 54 55 54 56 51 54 54 50 55 55 55 72 117 126 135 144 161 154 127
231 229 225 222 218 218 217 216 217 214 211 218 232 247 241 270 39 14 16 46 43 73 91 71 66 56 58 62 53 58 70 67 53 54 63 70 99 122 124 122 139 145 145
228 226 224 219 215 216 217 216 216 214 209 214 219 232 228 217 117 29 17 52 40 88 96 77 69 68 66 67 67 58 75 72 63 58 58 77 96 126 132 127 147 148 140
223 220 216 214 212 213 212 214 215 215 209 212 213 222 222 214 191 63 21 63 62 102 105 87 82 76 91 90 87 68 70 71 67 55 75 67 84 129 138 142 137 146 173
222 218 215 213 213 213 217 219 220 214 208 209 213 219 216 213 211 138 43 80 79 116 117 101 88 91 96 102 98 90 81 71 81 73 93 78 96 109 117 132 141 146 159
220 217 214 213 212 213 214 213 212 211 210 211 209 215 213 207 209 194 97 115 103 122 129 114 96 96 92 101 104 90 93 102 83 95 103 97 97 108 119 138 121 132 131
220 218 216 215 213 214 213 214 215 217 217 214 211 214 211 208 204 199 142 140 132 128 140 128 110 99 90 106 104 84 105 120 111 80 100 119 116 100 105 132 123 124 122
220 217 215 214 213 215 214 215 215 215 216 213 208 211 209 207 204 197 177 154 162 145 151 142 130 113 104 99 106 109 96 115 124 109 93 93 138 115 106 112 118 122 123
218 216 213 211 214 215 214 214 214 214 212 210 209 211 207 204 206 197 191 160 169 163 159 165 149 126 120 115 125 130 119 126 134 129 110 110 103 113 121 117 116 113 114
Wind_Speed_850mb
27 22 27 18 19 17 19 14 10 7 8 12 15 13 10 7 6 8 10 12 15 18 21 23 26 29 30 31 30 31 28 21 23 25 23 23 24 20 17 13 15 13 21
28 27 23 17 14 14 13 14 8 5 9 13 12 10 8 8 7 7 7 9 12 15 17 19 21 24 25 27 29 32 35 37 30 26 28 27 24 22 21 18 19 17 23
24 28 27 17 17 15 15 11 5 6 10 10 8 8 8 9 9 10 10 11 12 15 17 20 21 23 23 24 25 28 31 34 36 33 31 31 30 26 25 24 24 22 23
27 31 26 22 21 18 16 9 4 6 8 6 7 7 8 9 10 11 12 13 14 16 18 21 23 25 25 24 25 27 31 34 38 43 39 36 35 33 28 30 32 29 26
30 31 28 25 21 19 14 8 5 5 4 6 7 8 10 12 14 14 14 14 15 16 18 20 22 24 25 26 28 30 34 36 37 38 44 44 41 38 35 32 36 35 31
29 27 26 24 22 19 13 8 4 3 4 6 9 12 14 15 15 15 16 16 17 18 19 22 23 25 27 28 30 30 32 31 32 36 40 48 48 43 41 33 39 38 33
28 26 25 22 20 19 14 7 2 2 5 8 12 14 16 16 17 17 17 17 19 21 21 25 27 28 27 25 24 25 22 23 24 25 29 36 46 46 45 36 37 40 39
16 21 22 22 22 19 13 6 2 1 4 9 12 14 15 17 17 17 17 19 21 21 20 22 19 23 25 21 22 21 24 27 23 23 25 28 36 46 45 43 36 40 45
20 19 22 22 24 19 13 7 4 1 3 8 11 13 15 16 16 16 18 19 20 25 22 24 25 26 27 26 26 25 23 18 19 19 24 29 41 50 51 40 35 39 45
22 20 21 22 23 20 15 9 6 3 3 6 10 12 15 15 15 15 17 20 23 20 22 24 23 26 29 27 24 21 22 21 22 20 20 20 26 39 47 44 41 38 43
31 24 19 22 24 21 16 12 9 4 2 6 9 12 14 14 14 17 19 22 20 23 26 31 32 29 30 28 28 24 21 19 17 17 16 18 17 29 41 38 43 36 35
37 27 22 25 24 22 18 14 10 6 2 4 8 11 12 12 15 18 21 21 18 19 25 27 28 30 31 30 28 22 18 15 14 12 10 10 16 24 28 37 36 35 33
31 28 25 26 25 22 18 16 11 7 3 3 7 10 11 12 15 17 19 17 17 17 24 27 28 33 34 28 24 22 17 15 15 14 7 7 14 23 31 39 41 32 31
39 29 27 28 26 25 22 17 12 8 4 3 6 9 9 10 13 15 17 14 15 18 25 26 33 35 29 27 27 26 24 16 11 12 7 5 10 22 28 38 44 27 25
43 36 33 32 29 27 23 18 13 9 6 3 5 7 8 9 11 15 15 13 14 18 23 27 35 36 40 42 42 45 35 27 14 17 5 7 6 11 18 31 41 28 21
48 44 39 37 33 30 26 20 15 11 6 5 4 6 6 7 9 14 13 12 14 17 22 30 35 37 33 46 50 54 43 38 31 23 11 8 9 13 15 28 31 26 12
51 47 45 41 36 32 27 22 17 13 9 6 5 6 5 6 8 13 11 10 10 16 19 25 27 31 37 45 48 50 45 41 36 31 24 12 14 19 30 43 47 27 41
55 53 48 46 41 36 32 26 22 16 12 10 6 7 4 4 6 12 11 11 10 13 16 19 23 28 42 48 49 43 45 44 36 36 33 24 26 36 49 52 49 44 30
55 55 54 51 46 41 37 31 26 21 16 14 10 8 6 2 4 10 10 11 9 12 18 20 22 24 36 45 45 40 46 39 39 37 38 32 31 47 47 34 41 43 32
58 54 54 52 50 47 41 37 33 27 22 19 14 11 9 5 1 6 8 10 8 16 17 18 19 21 28 39 40 32 43 40 35 41 44 40 30 46 48 40 53 44 33
62 59 57 58 58 55 53 47 40 32 26 22 18 14 12 8 4 4 6 8 8 15 17 19 20 16 18 35 38 39 39 43 38 33 49 49 40 37 36 39 48 41 27
66 66 64 61 61 58 52 44 38 31 28 25 22 19 17 12 7 2 3 6 9 14 17 18 20 19 18 22 28 32 34 37 33 31 35 50 47 43 45 45 47 54 44
73 73 70 66 64 58 53 50 44 40 36 35 29 23 20 16 11 4 2 5 8 13 16 17 19 18 15 13 13 10 12 16 47 42 34 44 58 70 60 53 57 60 87
70 67 70 68 65 61 56 56 50 44 37 30 24 24 23 19 14 8 5 5 7 13 15 17 19 18 17 16 19 22 19 34 43 33 48 42 39 55 73 77 76 72 67
65 65 70 70 67 61 60 57 52 45 35 28 31 30 28 24 20 13 7 7 8 12 15 16 18 18 18 21 22 27 28 30 39 69 49 56 46 49 60 64 67 66 69
67 65 67 72 69 63 62 59 54 45 40 37 36 34 32 28 24 17 10 8 12 11 15 16 19 17 16 17 21 27 39 46 57 59 76 69 72 71 66 60 60 54 52
Wind_Direction_850mb
162 188 185 205 217 233 231 232 235 257 301 320 325 328 329 326 312 288 277 274 272 271 272 272 270 268 265 264 260 258 259 260 247 238 238 238 238 244 243 248 222 209 183
162 184 181 206 217 226 244 211 229 285 323 331 335 342 345 347 337 317 304 292 287 285 284 280 278 275 272 268 264 260 259 257 256 243 240 236 237 238 234 230 220 218 189
171 170 178 189 208 221 226 205 231 306 329 333 347 355 359 356 346 338 330 321 309 298 296 292 290 286 281 274 268 262 259 254 243 234 233 232 227 228 227 218 213 211 190
173 171 173 189 210 212 198 201 247 310 326 345 9 11 8 357 351 344 337 328 313 305 299 295 292 291 286 278 268 258 251 247 242 234 229 227 223 220 221 212 209 207 192
176 177 180 188 200 185 189 199 247 306 337 11 18 14 4 360 353 345 337 327 315 307 302 298 298 292 287 279 271 264 256 251 247 242 232 226 223 216 216 212 211 208 197
181 183 196 186 182 176 185 202 254 325 4 16 13 7 2 359 350 345 342 334 324 322 318 310 302 300 302 298 293 295 287 276 262 250 238 226 221 216 214 214 212 212 202
181 187 210 220 181 174 183 198 247 354 7 12 7 5 0 356 349 346 341 334 331 329 328 334 327 323 316 309 307 298 302 294 278 264 254 241 226 218 215 213 211 213 205
201 204 221 218 174 178 182 190 203 350 4 7 4 2 355 351 343 340 339 334 337 346 348 337 343 342 344 327 312 303 306 304 298 271 251 242 237 226 220 217 210 212 207
208 228 225 198 175 180 183 188 198 258 357 8 359 354 351 348 343 342 339 337 341 349 1 3 7 0 354 344 330 323 315 297 282 272 250 233 214 209 217 223 213 209 209
219 229 226 193 178 183 188 194 201 231 341 0 358 350 350 349 344 342 341 347 356 356 14 9 1 2 3 354 339 326 316 305 293 279 259 245 235 217 199 213 218 213 210
215 220 217 196 183 188 194 205 209 216 288 351 354 349 354 350 344 347 353 4 7 17 14 16 17 9 359 353 349 343 329 314 309 294 273 247 230 207 199 203 211 214 218
212 212 206 198 193 194 201 206 210 210 258 345 351 351 355 347 348 355 6 4 18 18 14 13 8 0 -0 360 359 353 348 342 324 312 281 252 225 198 199 200 200 207 216
212 211 204 199 197 198 202 203 207 213 236 322 357 352 355 349 356 0 3 1 23 22 25 22 16 8 8 10 10 7 3 348 331 328 298 295 225 211 206 204 206 189 204
215 216 210 203 201 197 200 204 206 215 228 310 354 351 350 349 3 4 4 23 28 39 35 27 16 13 20 26 20 14 8 351 342 350 326 293 214 218 209 206 204 189 189
223 221 217 212 206 204 207 209 207 207 222 280 342 344 340 352 8 5 9 34 40 49 42 31 22 23 26 35 31 31 21 14 12 359 13 166 189 207 209 200 197 195 185
227 226 223 217 211 209 212 211 209 206 219 261 313 323 331 350 9 5 17 44 48 60 50 38 30 37 41 42 44 39 31 33 30 22 33 168 149 161 170 163 162 181 177
232 228 225 220 217 214 215 215 213 215 208 240 286 296 314 339 13 2 20 42 58 72 64 49 44 53 57 50 47 49 41 37 34 41 53 91 140 137 137 130 151 164 117
231 230 227 221 219 218 218 216 216 215 209 225 247 265 276 321 21 5 20 42 62 80 77 60 54 55 54 56 51 54 54 50 55 55 55 72 117 126 135 144 161 154 127
231 229 225 222 218 218 217 216 217 214 211 218 232 247 241 270 39 14 16 46 43 73 91 71 66 56 58 62 53 58 70 67 53 54 63 70 99 122 124 122 139 145 145
228 226 224 219 215 216 217 216 216 214 209 214 219 232 228 217 117 29 17 52 40 88 96 77 69 68 66 67 67 58 75 72 63 58 58 77 96 126 132 127 147 148 140
223 220 216 214 212 213 212 214 215 215 209 212 213 222 222 214 191 63 21 63 62 102 105 87 82 76 91 90 87 68 70 71 67 55 75 67 84 129 138 142 137 146 173
222 218 215 213 213 213 217 219 220 214 208 209 213 219 216 213 211 138 43 80 79 116 117 101 88 91 96 102 98 90 81 71 81 73 93 78 96 109 117 132 141 146 159
220 217 214 213 212 213 214 213 212 211 210 211 209 215 213 207 209 194 97 115 103 122 129 114 96 96 92 101 104 90 93 102 83 95 103 97 97 108 119 138 121 132 131
220 218 216 215 213 214 213 214 215 217 217 214 211 214 211 208 204 199 142 140 132 128 140 128 110 99 90 106 104 84 105 120 111 80 100 119 116 100 105 132 123 124 122
220 217 215 214 213 215 214 215 215 215 216 213 208 211 209 207 204 197 177 154 162 145 151 142 130 113 104 99 106 109 96 115 124 109 93 93 138 115 106 112 118 122 123
218 216 213 211 214 215 214 214 214 214 212 210 209 211 207 204 206 197 191 160 169 163 159 165 149 126 120 115 125 130 119 126 134 129 110 110 103 113 121 117 116 113 114